Home   Weather   Wismar   Past weeks

Flag for Germany Past Weather in Wismar, Mecklenburg-Western Pomerania, Germany — Yesterday and Last 2 Weeks

Now
45 °F

Partly sunny.


Feels Like: 41 °F
Forecast: 37 / 45 °F
Wind: 7 mph from West

Location: Luebeck-Blankensee

Current Time: Apr 24, 2017 at 7:23:49 pm

Latest Report: Apr 24, 2017 at 6:50 pm


Visibility: N/A

Pressure: 29.74 "Hg

Humidity: 87%

Dew Point: 41 °F

Location of WismarLocation

Past Weather in Wismar — Graph

°F

Wismar Temperature Yesterday

Maximum temperature yesterday: 48 °F (at 2:50 pm)
Minimum temperature yesterday: 39 °F (at 6:20 am)
Average temperature yesterday: 44 °F

High & Low Weather Summary for the Past Weeks

 TemperatureHumidityPressure
High66 °F (Apr 9, 6:20 pm)100% (Apr 12, 11:20 am)30.60 "Hg (Apr 12, 11:20 am)
Low27 °F (Apr 20, 6:50 am)39% (Apr 19, 3:20 pm)29.68 "Hg (Apr 15, 9:50 am)
Average46 °F71%30.06 "Hg
* Reported Apr 9 6:20 pm — Apr 24 6:20 pm, Wismar, Weather by CustomWeather, © 2017

Note: Actual official high and low records may vary slightly from our data, if they occured in-between our weather recording intervals... More about our weather records

Advertising

Wismar Weather History for the Previous 24 Hours

Scroll right to see more
 ConditionsComfort  
Time TempWeatherWind HumidityBarometerVisibility
6:20 pm
Mon, Apr 24
45 °FScattered showers. Partly sunny.12 mph87%29.74 "HgN/A
5:50 pm46 °FScattered showers. Partly sunny.10 mph82%29.74 "HgN/A
5:20 pm48 °FPartly sunny.14 mph94%29.74 "HgN/A
4:50 pm48 °FLight rain. Broken clouds.13 mph87%29.74 "Hg4 mi
4:20 pm48 °FLight rain. Broken clouds.12 mph87%29.74 "Hg4 mi
3:50 pm50 °FLight rain. Partly sunny.13 mph76%29.77 "Hg4 mi
3:20 pm52 °FPartly sunny.16 mph67%29.74 "HgN/A
2:50 pm52 °FPartly sunny.20 mph67%29.77 "HgN/A
2:20 pm50 °FScattered showers. Partly sunny.20 mph71%29.77 "HgN/A
1:50 pm52 °FBroken clouds.23 mph62%29.77 "HgN/A
1:20 pm54 °FPartly sunny.20 mph63%29.80 "HgN/A
12:50 pm52 °FPartly sunny.20 mph62%29.80 "HgN/A
12:20 pm50 °FPartly sunny.20 mph62%29.83 "HgN/A
11:50 am48 °FPartly sunny.18 mph66%29.83 "HgN/A
11:20 am48 °FPartly sunny.18 mph62%29.86 "HgN/A
10:50 am46 °FBroken clouds.20 mph66%29.86 "HgN/A
10:20 am46 °FPartly sunny.18 mph66%29.86 "HgN/A
9:20 am45 °FPartly sunny.13 mph71%29.89 "HgN/A
8:50 am43 °FPartly sunny.13 mph76%29.89 "HgN/A
8:20 am41 °FBroken clouds.14 mph76%29.92 "HgN/A
7:50 am41 °FBroken clouds.12 mph76%29.92 "HgN/A
7:20 am39 °FBroken clouds.10 mph81%29.95 "HgN/A
6:50 am39 °FPartly sunny.10 mph81%29.98 "HgN/A
8:20 pm
Sun, Apr 23
43 °FPassing clouds.8 mph66%30.09 "HgN/A
7:50 pm43 °FPassing clouds.8 mph71%30.09 "HgN/A
7:20 pm43 °FScattered showers. Scattered clouds.10 mph71%30.09 "HgN/A
Weather by CustomWeather, © 2017

See weather overviewHow to use our weather pages